TimeEST,TemperatureF,Dew PointF,Humidity,Sea Level PressureIn,VisibilityMPH,Wind Direction,Wind SpeedMPH,Gust SpeedMPH,PrecipitationIn,Events,Conditions,WindDirDegrees,DateUTC
12:51 AM,25.0,21.9,88,30.30,10.0,Calm,Calm,-,N/A,,Clear,0,2012-11-22 05:51:00
1:51 AM,23.0,21.2,93,30.25,10.0,Calm,Calm,-,N/A,,Clear,0,2012-11-22 06:51:00
2:51 AM,24.1,23.0,96,30.30,9.0,Calm,Calm,-,N/A,,Clear,0,2012-11-22 07:51:00
3:51 AM,23.0,21.9,96,30.30,9.0,Calm,Calm,-,N/A,,Clear,0,2012-11-22 08:51:00
4:51 AM,21.0,19.9,96,30.31,9.0,Calm,Calm,-,N/A,,Clear,0,2012-11-22 09:51:00
5:51 AM,21.9,19.9,92,30.31,9.0,Calm,Calm,-,N/A,,Clear,0,2012-11-22 10:51:00
6:51 AM,19.9,19.0,96,30.32,9.0,Calm,Calm,-,N/A,,Clear,0,2012-11-22 11:51:00
7:51 AM,24.8,24.8,100,30.27,8.0,Calm,Calm,-,N/A,,Clear,0,2012-11-22 12:51:00
8:51 AM,28.9,27.0,92,30.31,8.0,Calm,Calm,-,N/A,,Clear,0,2012-11-22 13:51:00
9:51 AM,34.0,28.0,79,30.30,9.0,Calm,Calm,-,N/A,,Clear,0,2012-11-22 14:51:00
10:51 AM,37.4,28.4,70,30.24,10.0,Calm,Calm,-,N/A,,Clear,0,2012-11-22 15:51:00
11:51 AM,44.1,28.9,55,30.25,10.0,Calm,Calm,-,N/A,,Clear,0,2012-11-22 16:51:00
12:51 PM,48.9,28.0,44,30.23,10.0,Calm,Calm,-,N/A,,Clear,0,2012-11-22 17:51:00
1:51 PM,52.0,28.0,40,30.20,10.0,WSW,3.5,-,N/A,,Clear,240,2012-11-22 18:51:00
2:51 PM,53.1,25.0,34,30.19,10.0,South,6.9,-,N/A,,Clear,170,2012-11-22 19:51:00
3:51 PM,48.9,25.0,39,30.20,10.0,Calm,Calm,-,N/A,,Clear,0,2012-11-22 20:51:00
4:51 PM,46.9,25.0,42,30.19,10.0,SSW,8.1,-,N/A,,Clear,200,2012-11-22 21:51:00
5:51 PM,45.0,27.0,49,30.20,10.0,South,5.8,-,N/A,,Clear,170,2012-11-22 22:51:00
6:51 PM,37.9,26.1,62,30.19,10.0,Calm,Calm,-,N/A,,Clear,0,2012-11-22 23:51:00
7:51 PM,35.1,25.0,67,30.19,10.0,Calm,Calm,-,N/A,,Clear,0,2012-11-23 00:51:00
8:51 PM,35.1,26.1,70,30.18,10.0,Calm,Calm,-,N/A,,Clear,0,2012-11-23 01:51:00
9:51 PM,30.9,25.0,79,30.17,10.0,Calm,Calm,-,N/A,,Clear,0,2012-11-23 02:51:00
10:51 PM,30.9,25.0,79,30.14,10.0,Calm,Calm,-,N/A,,Clear,0,2012-11-23 03:51:00
11:51 PM,28.0,24.1,85,30.13,10.0,Calm,Calm,-,N/A,,Clear,0,2012-11-23 04:51:00